User: anonymous   Login
Location: Asheville, NC
(35.6000°N, 82.5500°W)
Time: 03:21:34
(UTC-04:00)
Language:

Tiangong 2 - Orbit

View from above orbital plane
View from above orbital plane
View from above satellite
View from above satellite

Ground track
Ground track

The orbit data is extracted from the following two-line orbital elements,

1 41765U 16057A   18110.91397480  .00004268  00000-0  53843-4 0  9991
2 41765  42.7853 324.3943 0004389 238.7565 213.2947 15.61005031 91035
Epoch (UTC): 20 April 2018 21:56:07
Eccentricity: 0.0004389
inclination: 42.7853°
perigee height: 382 km
apogee height: 388 km
right ascension of ascending node: 324.3943°
argument of perigee: 238.7565°
revolutions per day: 15.61005031
mean anomaly at epoch: 213.2947°
orbit number at epoch: 9103

The dashed part of the orbit path shows where the satellite is in the earth's shadow,  

DLR